Location: Maiden
(35.5760°N, 81.2120°W)
Time: 03:15:21
(UTC-04:00)

CZ-4 R/B - Pass Details

Date: 02 August 2020
Orbit: 533 x 596 km, 97.8° (Epoch: 11 August)

Event Time Altitude Azimuth Distance (km) Brightness Sun altitude
Rises 20:51:24 0° 200° (SSW) 2,663 4.8 -5.3°
Reaches altitude 10° 20:53:58 10° 218° (SW) 1,781 4.1 -5.8°
Maximum altitude 20:56:45 19° 265° (W) 1,314 4.2 -6.3°
Drops below altitude 10° 20:59:33 10° 312° (NW) 1,803 5.5 -6.8°
Sets 21:02:11 0° 330° (NNW) 2,709 5.9 -7.3°
